Location: La Estación
(39.9833°N, 3.9500°W)
Time: 15:17:58
(UTC+00:00)

Cosmos 540 Rocket - Pass Details

Date: 14 June 2025
Orbit: 736 x 747 km, 74.1° (Epoch: 19 July)

Event Time Altitude Azimuth Distance (km) Brightness Sun altitude
Rises 23:06:33 0° 348° (NNW) 3,189 8.1 -24.7°
Reaches altitude 10° 23:09:04 10° 356° (N) 2,259 6.9 -24.8°
Maximum altitude 23:13:51 39° 65° (ENE) 1,111 4.3 -25.1°
Enters shadow 23:14:31 37° 84° (E) 1,145 4.3 -25.1°
